SL-8 R/B, 3048

Orbit data source: Space-Track

SL-8 R/B, 3048 is space debris in LEO originally from a launch on Thu, 23 Nov 1967 UTC launched from the Plesetsk Missile And Space Complex (PKMTR). Debris objects in space refer to the collection of defunct objects orbiting the Earth. Examples of debris include non-operational satellites, rocket bodies, and fragments generated from explosions, collisions, or faulty payload assembly.

Loading next visibility...
Identifier
3048, 1967-116B
Orbit
LEO
Country
Flag of CISCIS
Related business
Manufacturer
Yuzhnoe
Mission
Spacecraft
Bus & Motor
S3, Unknown motor
Mass
1,434 kg wet, 1,434 kg dry
Launch date (UTC)
1967-11-23 (58 years ago)
Launch vehicle
Unknown
Launch site
Plesetsk Missile And Space Complex (PKMTR)
Object type
Payload
Rocket body
Debris
Shape & HBR
Unknown
Radar Cross Section
Large (>1 m²)

Expand to show TLE details & history
Last TLE update: 11 hours ago

TLE from 11 hours ago
0 SL-8 R/B
1 03048U 67116B   25305.41899861  .00000908  00000-0  18284-3 0  9990
2 03048  74.0050 287.0171 0005550  98.6340  17.0689 14.63076520 72727
Epoch: 2025-11-01T10:03Z
TLE epoch observation values (Epoch: 2025-11-01T10:03:21.479Z)
Latitude
60.10798°
Longitude
-114.50595°
Altitude
689.386 km
Speed
7.52 km/s
True Right ascension
05h 09m 07s
True Declination
59° 57' 28"
Sunlit
Object was in full shadow at epoch
Visualization orbit readout
Latitude
Unknown
Longitude
Unknown
Altitude
Unknown
Speed
Unknown
Apparent Right ascension
Unknown
Apparent Declination
Unknown
Sunlit
N/A
Visualization observer readout
Local Sidereal Time
16:39:52
Azimuth
Unknown
Elevation
Unknown
Doppler factor
Unknown
Orbital elements
Apogee altitude
684.772 km
Perigee altitude
676.937 km
Semi-major axis
7,058.991 km
Eccentricity
0.00056
Inclination
74.005°
RAAN
287.0171°
Arg. of periapsis
98.634°
True anomaly
17.08758°
Mean anomaly
17.0689°
Eccentric anomaly
17.07824°
Mean motion
3.65956 °/min
Orbital period
98.37 mins
BSTAR
0.00018284
Loading maneuver chart data...
Computing Atmospheric mass density...
Loading historical data...
Loading historical data...
Loading historical data...
Loading historical data...
Loading historical data...
Loading historical data...
Loading historical data...

Documentation

Showing up to 5 results
|